CPA289 VHHH-EDDF

Flight info

Callsign CPA289
Flight time N/A
Altitude 30100
Route BEKOL1X/07R BEKOL A461 SHL W22 TEPID W24 OSNOV G586 QP B330 ELKAL W179 IRVED/K0943S0980 W179 IGNAK/K0943S0950 W179 WFX/K0937S0980 W179 OMBON W195 VIDEK/K0935S0950 W195 LAXAL/K0928S0980 W195 IDOPA W197 ANDIM B215 IBANO G470 AKLAS W192 FKG/K0902S1040 A368 SARIN/K0902F340 N161 RELGE/K0909F360 N161 GASBI/N0489F360 N161 LEYLA T916 MATAL DCT TABAS DCT REBLO UM11 CRM UL746 ODERO DCT OPT DCT IRLOX DCT BALUX/N0486F380 DCT TEKNO DCT ABETI DCT SUBEN DCT AKINI T161 DEBHI DEBHI1C
Aircraft B77W/H-SDE1E2E3FGHIJ2J3J4J5M1RWXY/LB1D1

Departure

Time N/A
Airport Hong Kong International Airport (VHHH)

Arrival

Time 2026-05-07 16:41
Airport Frankfurt Main Airport (EDDF)
Time Latitude Longitude Altitude Speed Heading
2026-05-07 15:55 48.15141 14.79791 36013 ft 472 kts 283°
2026-05-07 15:56 48.17028 14.70468 35986 ft 465 kts 283°
2026-05-07 15:56 48.18893 14.61179 36003 ft 466 kts 283°
2026-05-07 15:57 48.20751 14.51870 36005 ft 466 kts 283°
2026-05-07 15:57 48.22606 14.42541 36000 ft 467 kts 283°
2026-05-07 15:58 48.24456 14.33197 35991 ft 467 kts 283°
2026-05-07 15:58 48.26301 14.23831 36000 ft 468 kts 283°
2026-05-07 15:59 48.28140 14.14445 35999 ft 469 kts 283°
2026-05-07 15:59 48.29964 14.05096 35997 ft 469 kts 283°
2026-05-07 16:00 48.31789 13.95696 36004 ft 469 kts 283°
2026-05-07 16:00 48.33607 13.86285 36016 ft 469 kts 283°
2026-05-07 16:01 48.35396 13.76982 36010 ft 469 kts 283°
2026-05-07 16:01 48.37198 13.67557 36002 ft 469 kts 283°
2026-05-07 16:02 48.38994 13.58125 36003 ft 469 kts 283°
2026-05-07 16:02 48.40780 13.48693 36007 ft 468 kts 283°
2026-05-07 16:03 48.42558 13.39265 36015 ft 468 kts 283°
2026-05-07 16:03 48.44531 13.29915 36011 ft 470 kts 289°
2026-05-07 16:04 48.46971 13.20778 36012 ft 470 kts 289°
2026-05-07 16:04 48.49423 13.11638 36010 ft 470 kts 289°
2026-05-07 16:05 48.51842 13.02486 36023 ft 470 kts 289°
2026-05-07 16:05 48.54246 12.93303 36016 ft 470 kts 289°
2026-05-07 16:06 48.56620 12.84188 36017 ft 469 kts 289°
2026-05-07 16:06 48.59004 12.75000 36017 ft 469 kts 289°
2026-05-07 16:07 48.61379 12.65815 36023 ft 470 kts 289°
2026-05-07 16:07 48.63750 12.56606 36022 ft 470 kts 289°
2026-05-07 16:08 48.66117 12.47379 36021 ft 470 kts 289°
2026-05-07 16:08 48.68476 12.38143 36026 ft 471 kts 289°
2026-05-07 16:09 48.70831 12.28884 36026 ft 471 kts 289°
2026-05-07 16:09 48.73180 12.19616 36027 ft 471 kts 289°
2026-05-07 16:10 48.75247 12.10224 36025 ft 469 kts 282°
2026-05-07 16:10 48.76335 12.00551 36032 ft 468 kts 277°
2026-05-07 16:11 48.77324 11.90802 36026 ft 468 kts 277°
2026-05-07 16:11 48.78346 11.81058 36029 ft 468 kts 278°
2026-05-07 16:12 48.79376 11.71298 36021 ft 468 kts 278°
2026-05-07 16:12 48.80394 11.61551 36022 ft 468 kts 278°
2026-05-07 16:13 48.81414 11.51808 36023 ft 468 kts 278°
2026-05-07 16:13 48.82432 11.42042 36031 ft 467 kts 278°
2026-05-07 16:14 48.83432 11.32360 36021 ft 467 kts 278°
2026-05-07 16:14 48.85250 11.22953 36025 ft 469 kts 296°
2026-05-07 16:15 48.89181 11.15035 36019 ft 476 kts 315°
2026-05-07 16:15 48.91690 11.11728 35806 ft 480 kts 317°
2026-05-07 16:15 48.94213 11.08388 35305 ft 481 kts 316°
2026-05-07 16:15 48.96687 11.05000 34840 ft 476 kts 315°
2026-05-07 16:16 48.99112 11.01595 34388 ft 472 kts 315°
2026-05-07 16:16 49.01507 10.98197 33925 ft 469 kts 315°
2026-05-07 16:16 49.03887 10.94820 33397 ft 467 kts 315°
2026-05-07 16:16 49.06266 10.91453 32776 ft 466 kts 315°
2026-05-07 16:17 49.08639 10.88098 32123 ft 465 kts 316°
2026-05-07 16:17 49.11010 10.84752 31452 ft 464 kts 316°
2026-05-07 16:17 49.13376 10.81414 30834 ft 462 kts 316°
2026-05-07 16:17 49.15725 10.78094 30207 ft 458 kts 316°
2026-05-07 16:18 49.18047 10.74808 29476 ft 453 kts 316°
2026-05-07 16:18 49.20343 10.71542 28727 ft 447 kts 315°
2026-05-07 16:18 49.22537 10.68203 27979 ft 442 kts 313°
2026-05-07 16:18 49.24653 10.64822 27267 ft 438 kts 312°
2026-05-07 16:19 49.26743 10.61452 26604 ft 435 kts 313°
2026-05-07 16:19 49.28825 10.58117 25938 ft 431 kts 313°
2026-05-07 16:19 49.30902 10.54820 25293 ft 428 kts 313°
2026-05-07 16:19 49.32970 10.51553 24657 ft 425 kts 313°
2026-05-07 16:20 49.35024 10.48306 24038 ft 423 kts 313°
2026-05-07 16:20 49.37000 10.45010 23494 ft 417 kts 308°
2026-05-07 16:20 49.38717 10.41471 22935 ft 411 kts 304°
2026-05-07 16:20 49.40280 10.37907 22402 ft 405 kts 303°
2026-05-07 16:21 49.41827 10.34315 21864 ft 401 kts 303°
2026-05-07 16:21 49.43352 10.30823 21346 ft 397 kts 303°
2026-05-07 16:21 49.44886 10.27374 20838 ft 395 kts 303°
2026-05-07 16:21 49.46449 10.23901 20332 ft 394 kts 303°
2026-05-07 16:22 49.48020 10.20430 19832 ft 394 kts 303°
2026-05-07 16:22 49.49588 10.16971 19355 ft 393 kts 303°
2026-05-07 16:22 49.51148 10.13528 18872 ft 392 kts 303°
2026-05-07 16:22 49.52179 10.11248 18555 ft 391 kts 303°
2026-05-07 16:23 49.53729 10.07815 18037 ft 390 kts 304°
2026-05-07 16:23 49.55275 10.04390 17523 ft 389 kts 304°
2026-05-07 16:23 49.56815 10.00973 16987 ft 388 kts 304°
2026-05-07 16:23 49.58348 9.97568 16460 ft 384 kts 304°
2026-05-07 16:24 49.59859 9.94207 15945 ft 380 kts 304°
2026-05-07 16:24 49.61354 9.90875 15440 ft 375 kts 304°
2026-05-07 16:24 49.62832 9.87579 14943 ft 372 kts 304°
2026-05-07 16:24 49.64295 9.84310 14450 ft 368 kts 304°
2026-05-07 16:25 49.65747 9.81073 13969 ft 365 kts 305°
2026-05-07 16:25 49.67353 9.78060 13498 ft 361 kts 314°
2026-05-07 16:25 49.69085 9.75368 13138 ft 355 kts 314°
2026-05-07 16:25 49.70822 9.72662 12776 ft 353 kts 314°
2026-05-07 16:26 49.72531 9.69981 12417 ft 347 kts 314°
2026-05-07 16:26 49.74212 9.67333 12037 ft 342 kts 314°
2026-05-07 16:26 49.75861 9.64723 11672 ft 336 kts 314°
2026-05-07 16:26 49.77482 9.62149 11287 ft 333 kts 314°
2026-05-07 16:27 49.79089 9.59591 10871 ft 329 kts 313°
2026-05-07 16:27 49.80676 9.57060 10498 ft 327 kts 314°
2026-05-07 16:27 49.82252 9.54544 10112 ft 324 kts 314°
2026-05-07 16:27 49.83812 9.52052 9807 ft 318 kts 314°
2026-05-07 16:28 49.85329 9.49625 9643 ft 308 kts 314°
2026-05-07 16:28 49.86800 9.47271 9420 ft 301 kts 314°
2026-05-07 16:28 49.88251 9.44944 9007 ft 300 kts 314°
2026-05-07 16:28 49.89700 9.42619 8617 ft 299 kts 314°
2026-05-07 16:29 49.91136 9.40313 8350 ft 294 kts 313°
2026-05-07 16:29 49.92545 9.38049 8099 ft 290 kts 313°
2026-05-07 16:29 49.93936 9.35811 7830 ft 285 kts 313°
2026-05-07 16:29 49.95304 9.33608 7570 ft 281 kts 313°
2026-05-07 16:30 49.96653 9.31435 7305 ft 278 kts 313°
2026-05-07 16:30 49.97981 9.29293 7094 ft 271 kts 313°
2026-05-07 16:30 49.99251 9.27243 6863 ft 254 kts 313°
2026-05-07 16:30 50.00439 9.25323 6668 ft 240 kts 313°
2026-05-07 16:31 50.01583 9.23474 6487 ft 234 kts 313°
2026-05-07 16:31 50.02702 9.21662 6289 ft 230 kts 313°
2026-05-07 16:31 50.03803 9.19880 6092 ft 227 kts 313°
2026-05-07 16:31 50.04896 9.18108 5924 ft 226 kts 313°
2026-05-07 16:32 50.05984 9.16344 5754 ft 225 kts 313°
2026-05-07 16:32 50.07059 9.14597 5618 ft 224 kts 313°
2026-05-07 16:32 50.08145 9.12835 5515 ft 227 kts 313°
2026-05-07 16:32 50.09249 9.11043 5438 ft 230 kts 313°
2026-05-07 16:33 50.10343 9.09264 5342 ft 230 kts 313°
2026-05-07 16:33 50.11449 9.07464 5244 ft 229 kts 313°
2026-05-07 16:33 50.12548 9.05676 5143 ft 228 kts 313°
2026-05-07 16:33 50.13585 9.03831 5016 ft 225 kts 300°
2026-05-07 16:34 50.13961 9.01510 4892 ft 224 kts 265°
2026-05-07 16:34 50.13422 8.99258 4783 ft 228 kts 233°
2026-05-07 16:34 50.12139 8.97772 4700 ft 236 kts 200°
2026-05-07 16:34 50.10499 8.97508 4615 ft 239 kts 178°
2026-05-07 16:35 50.08866 8.97248 4486 ft 238 kts 204°
2026-05-07 16:35 50.07561 8.95729 4393 ft 233 kts 237°
2026-05-07 16:35 50.07009 8.93464 4258 ft 219 kts 270°
2026-05-07 16:35 50.07323 8.91291 4125 ft 202 kts 300°
2026-05-07 16:36 50.08026 8.89523 4121 ft 184 kts 303°
2026-05-07 16:36 50.08708 8.87847 4050 ft 184 kts 303°
2026-05-07 16:36 50.09396 8.86149 3876 ft 184 kts 301°
2026-05-07 16:36 50.09693 8.84242 3630 ft 186 kts 264°
2026-05-07 16:37 50.09389 8.82317 3497 ft 180 kts 259°
2026-05-07 16:37 50.09096 8.80437 3294 ft 178 kts 257°
2026-05-07 16:37 50.08730 8.78579 3085 ft 180 kts 253°
2026-05-07 16:37 50.08312 8.76748 2833 ft 178 kts 252°
2026-05-07 16:38 50.07890 8.74962 2592 ft 174 kts 251°
2026-05-07 16:38 50.07466 8.73183 2401 ft 178 kts 252°
2026-05-07 16:38 50.07031 8.71353 2132 ft 181 kts 251°
2026-05-07 16:38 50.06607 8.69571 1867 ft 169 kts 251°
2026-05-07 16:39 50.06217 8.67941 1637 ft 152 kts 251°
2026-05-07 16:39 50.05855 8.66417 1479 ft 151 kts 252°
2026-05-07 16:39 50.05489 8.64875 1245 ft 150 kts 251°
2026-05-07 16:39 50.05132 8.63379 1033 ft 145 kts 250°
2026-05-07 16:40 50.04785 8.61930 825 ft 141 kts 250°
2026-05-07 16:40 50.04450 8.60516 627 ft 138 kts 248°
2026-05-07 16:40 50.04116 8.59114 432 ft 140 kts 249°
2026-05-07 16:40 50.03777 8.57691 361 ft 135 kts 248°
2026-05-07 16:41 50.03493 8.56505 357 ft 93 kts 250°
2026-05-07 16:41 50.03332 8.55833 359 ft 41 kts 250°
2026-05-07 16:41 50.03317 8.55472 358 ft 21 kts 280°
2026-05-07 16:41 50.03331 8.55335 358 ft 13 kts 279°
2026-05-07 16:42 50.03343 8.55227 355 ft 0 kts 279°
2026-05-07 16:42 50.03343 8.55226 355 ft 0 kts 279°
2026-05-07 16:43 50.03344 8.55225 355 ft 0 kts 280°
2026-05-07 16:43 50.03353 8.55199 361 ft 8 kts 303°
2026-05-07 16:43 50.03427 8.55216 361 ft 18 kts 58°
2026-05-07 16:43 50.03485 8.55444 355 ft 26 kts 69°
2026-05-07 16:44 50.03556 8.55740 356 ft 31 kts 70°
2026-05-07 16:44 50.03628 8.56047 358 ft 30 kts 70°
2026-05-07 16:44 50.03701 8.56351 358 ft 30 kts 69°
2026-05-07 16:44 50.03774 8.56655 355 ft 30 kts 70°
2026-05-07 16:45 50.03847 8.56959 352 ft 30 kts 70°
2026-05-07 16:45 50.03919 8.57264 355 ft 30 kts 70°
2026-05-07 16:45 50.03992 8.57567 355 ft 30 kts 69°
2026-05-07 16:45 50.04064 8.57871 355 ft 30 kts 70°
2026-05-07 16:46 50.04136 8.58171 352 ft 30 kts 70°
2026-05-07 16:46 50.04210 8.58474 353 ft 30 kts 69°
2026-05-07 16:46 50.04284 8.58782 360 ft 30 kts 70°
2026-05-07 16:46 50.04356 8.59085 359 ft 30 kts 69°
2026-05-07 16:47 50.04422 8.59360 354 ft 17 kts 70°
2026-05-07 16:47 50.04472 8.59468 360 ft 11 kts 16°
2026-05-07 16:47 50.04537 8.59469 356 ft 0 kts 358°
2026-05-07 16:47 50.04543 8.59469 353 ft 3 kts 358°
2026-05-07 16:48 50.04611 8.59466 353 ft 17 kts 358°
2026-05-07 16:48 50.04757 8.59410 358 ft 24 kts 339°
2026-05-07 16:48 50.04819 8.59373 359 ft 4 kts 339°
2026-05-07 16:48 50.04827 8.59368 358 ft 0 kts 339°
2026-05-07 16:49 50.04830 8.59367 358 ft 1 kts 339°
2026-05-07 16:49 50.04849 8.59361 357 ft 6 kts 355°
2026-05-07 16:49 50.04909 8.59370 357 ft 11 kts
2026-05-07 16:50 50.04982 8.59348 355 ft 11 kts 340°
2026-05-07 16:50 50.05054 8.59307 357 ft 11 kts 338°
2026-05-07 16:50 50.05078 8.59205 354 ft 11 kts 256°
2026-05-07 16:50 50.05052 8.59091 357 ft 11 kts 250°
2026-05-07 16:51 50.05052 8.59024 356 ft 6 kts 316°
2026-05-07 16:51 50.05092 8.58991 355 ft 7 kts 338°
2026-05-07 16:51 50.05123 8.58973 355 ft 0 kts 340°